Lid_Strength_Index
0 1 1 1 1 1 2 2 2 2 3 4 4 4 5 5 5 4 4 2 1 1 1 2 1 2 3 3 3 3 4 4 3 3 3 3 3 3 2 2 0 0 0
0 0 1 1 1 -0 0 2 3 4 4 4 5 5 5 5 5 6 6 5 2 1 2 2 2 2 3 3 3 4 4 4 4 3 3 3 3 3 2 1 1 1 1
-0 0 0 1 1 0 1 1 3 4 5 5 6 6 6 6 6 6 6 6 5 3 2 3 2 2 3 3 3 4 4 5 4 4 3 3 3 3 2 1 1 1 1
0 0 1 0 1 1 1 2 4 5 6 6 8 8 8 8 8 8 8 7 7 7 5 4 4 3 4 4 4 4 5 5 5 5 4 5 4 4 2 1 1 1 1
0 0 0 -0 -0 1 1 3 5 5 7 7 8 9 10 10 10 10 10 10 8 8 8 5 5 5 4 4 5 5 5 5 5 6 6 5 5 4 4 2 1 1 1
1 0 -0 -0 0 1 1 2 5 6 6 7 7 9 10 11 12 12 12 11 11 10 10 9 10 9 5 5 5 5 5 5 6 6 6 6 5 5 4 3 3 2 2
1 -0 -0 0 0 1 1 2 4 6 7 8 9 10 11 11 12 12 13 13 12 12 11 11 11 10 9 5 6 5 5 5 5 6 6 6 5 5 5 5 4 3 3
1 -0 -0 0 1 1 2 2 4 6 7 8 10 10 12 12 12 11 12 13 13 13 13 13 13 12 11 11 10 6 5 5 5 6 6 6 6 6 6 5 4 4 4
0 1 0 -0 1 1 2 2 3 5 8 8 8 9 11 12 13 12 12 12 13 13 13 13 13 13 13 12 9 8 6 6 5 6 6 6 6 6 6 6 5 4 4
0 1 1 0 1 1 2 1 3 4 7 8 8 7 8 9 12 13 12 12 12 12 13 14 14 14 14 12 11 10 8 6 6 6 7 7 7 6 6 6 6 5 5
1 1 1 1 0 1 1 2 2 4 5 6 7 9 9 9 9 11 13 13 12 12 12 13 14 14 14 13 13 11 8 7 7 7 7 7 7 7 7 7 6 6 6
1 1 1 1 1 0 1 2 2 3 5 5 6 8 8 9 9 10 11 12 13 12 12 12 13 13 14 14 12 11 8 8 8 8 8 8 8 8 8 8 7 7 6
2 1 1 1 1 1 1 0 2 2 4 5 6 6 7 7 8 8 9 11 12 13 12 12 12 13 13 14 13 12 9 9 9 9 9 9 9 9 9 9 8 8 7
2 1 1 0 1 1 1 1 1 1 2 3 4 6 6 7 7 8 8 10 12 13 14 13 12 13 13 14 13 12 12 10 9 9 9 9 9 9 10 9 8 8 8
2 2 1 1 0 1 1 1 1 1 1 2 3 4 5 5 6 7 6 7 9 11 14 13 14 12 13 14 14 13 14 11 9 8 9 9 10 9 9 9 8 8 7
2 2 2 2 1 1 1 1 1 1 1 2 2 3 5 5 5 6 7 6 7 8 10 11 12 13 13 14 14 14 15 13 10 9 9 9 9 9 9 9 8 7 7
2 2 2 2 2 2 2 2 2 2 2 2 2 3 3 4 4 5 6 6 7 7 9 12 13 14 14 14 15 15 15 15 13 10 9 9 9 9 9 9 8 7 7
1 2 2 3 2 2 2 3 2 2 3 3 3 4 3 3 5 4 5 6 7 7 7 9 15 16 15 14 15 16 16 15 16 12 11 10 10 10 10 9 9 8 8
1 1 2 3 3 3 3 2 2 3 3 3 3 4 4 5 5 5 6 6 6 7 8 8 15 16 17 15 16 16 17 17 16 14 11 11 10 10 10 10 9 9 8
3 2 2 2 2 3 3 3 3 3 3 3 3 4 4 4 5 5 6 7 7 8 8 9 14 16 15 16 16 17 18 17 17 16 14 14 12 11 10 9 9 8 8
8 7 7 5 3 3 3 3 3 3 3 4 4 4 4 5 8 6 5 7 7 8 9 10 13 15 16 17 17 17 17 16 17 17 17 17 16 16 15 11 11 10 9
10 10 10 10 9 8 11 11 10 7 6 5 5 5 6 11 10 10 9 8 7 9 10 12 13 15 15 15 16 17 17 18 19 17 18 18 17 17 16 15 12 11 10
12 12 11 12 11 11 11 11 12 11 10 10 10 11 12 12 13 12 12 11 11 11 9 12 13 14 14 15 16 16 17 17 18 18 17 18 18 17 16 15 12 11 11
14 13 13 13 13 12 12 12 13 12 12 13 13 13 13 12 13 14 14 13 13 13 11 12 11 12 13 14 15 14 15 18 19 18 17 19 18 18 17 17 13 12 12
14 14 14 14 14 14 13 13 13 14 14 14 14 14 14 14 13 13 14 15 16 15 13 12 12 12 12 13 13 15 17 17 20 19 18 18 19 19 18 18 16 12 12
15 14 15 15 15 15 13 13 13 14 15 15 15 15 15 14 13 13 14 15 15 16 16 16 15 13 13 13 14 13 16 16 19 20 18 19 19 18 20 17 18 17 16